Location: Stara Lesna
(49.1528°N, 20.2911°E)
Time: 00:54:27
(UTC+02:00)

USA 238 - Pass Details

Date: 21 September 2019
Orbit: 1029 x 1183 km, 63.4° (Epoch: 07 October)

Event Time Altitude Azimuth Distance (km) Brightness Sun altitude
Exits shadow 03:38:27 51° 274° (W) 1,318 3.8 -26.0°
Maximum altitude 03:39:51 61° 319° (NW) 1,206 3.8 -25.8°
Drops below altitude 10° 03:46:47 10° 40° (NE) 2,961 7.0 -24.9°
Sets 03:49:33 0° 44° (NE) 3,945 8.0 -24.5°
